Location: Dana
(41.8364°N, 106.7042°W)
Time: 12:08:50
(UTC+00:00)

Tiros 1 despin weight - Pass Details

Date: 15 May 2026
Orbit: 554 x 591 km, 48.2° (Epoch: 10 June)

Event Time Altitude Azimuth Distance (km) Brightness Sun altitude
Rises 15:21:44 0° 289° (WNW) 2,740 ? 38.1°
Reaches altitude 10° 15:24:09 10° 299° (WNW) 1,840 ? 38.6°
Maximum altitude 15:28:01 35° 6° (N) 910 ? 39.3°
Drops below altitude 10° 15:31:52 10° 73° (ENE) 1,832 ? 40.0°
Sets 15:34:15 0° 83° (E) 2,726 ? 40.4°
